This is the latest recevied weather packets stored in our database for station/object W4MLN-3. If no packets are shown the sender has not sent any weather packets the latest 1 day(s).
| Time | Temp. | Humidity | Pressure | Rain* | Wind** | Luminosity | Snow |
|---|---|---|---|---|---|---|---|
| 1836274678 | 15.56° C | 85% | 1021.7 hPa | 0 mm | 0 m/s | - | - |
| 1836274528 | 15.56° C | 86% | 1021.7 hPa | 0 mm | 0 m/s | - | - |
| 1836274377 | 15.56° C | 86% | 1021.7 hPa | 0 mm | 0 m/s | - | - |
| 1836274227 | 15.56° C | 85% | 1021.7 hPa | 0 mm | 0 m/s | - | - |
| 1836274077 | 16.11° C | 85% | 1021.7 hPa | 0 mm | 0 m/s | - | - |
| 1778027403 | 16.11° C | 54% | 1014 hPa | 0 mm | 0.89 m/s, 199° | - | - |
| 1778027103 | 16.11° C | 53% | 1014.1 hPa | 0 mm | 1.34 m/s, 194° | - | - |
| 1778026824 | 16.11° C | 53% | 1014.1 hPa | 0 mm | 1.34 m/s, 178° | - | - |
| 1778026503 | 16.67° C | 52% | 1014 hPa | 0 mm | 1.34 m/s, 178° | - | - |
| 1778026203 | 16.67° C | 52% | 1013.9 hPa | 0 mm | 1.79 m/s, 168° | - | - |
| 1778025904 | 16.67° C | 51% | 1013.8 hPa | 0 mm | 2.24 m/s, 164° | - | - |
| 1778025603 | 16.67° C | 51% | 1013.7 hPa | 0 mm | 2.24 m/s, 162° | - | - |
| 1778025303 | 16.67° C | 50% | 1013.6 hPa | 0 mm | 1.79 m/s, 171° | - | - |
| 1778025003 | 16.67° C | 50% | 1013.7 hPa | 0 mm | 1.34 m/s, 198° | - | - |
| 1778024703 | 16.67° C | 49% | 1013.9 hPa | 0 mm | 1.34 m/s, 174° | - | - |
| 1778024403 | 17.22° C | 49% | 1014.1 hPa | 0 mm | 1.79 m/s, 189° | - | - |
| 1778024103 | 17.22° C | 48% | 1014.1 hPa | 0 mm | 2.24 m/s, 178° | - | - |
| 1778023803 | 17.22° C | 46% | 1014.1 hPa | 0 mm | 2.24 m/s, 167° | - | - |
| 1778023503 | 17.78° C | 46% | 1014.1 hPa | 0 mm | 2.24 m/s, 167° | - | - |
| 1778023203 | 17.78° C | 45% | 1013.9 hPa | 0 mm | 2.24 m/s, 163° | - | - |
| 1778022903 | 17.78° C | 45% | 1013.9 hPa | 0 mm | 2.24 m/s, 169° | - | - |
| 1778022624 | 17.78° C | 45% | 1013.9 hPa | 0 mm | 2.24 m/s, 181° | - | - |
| 1778022345 | 17.78° C | 45% | 1013.9 hPa | 0 mm | 2.24 m/s, 172° | - | - |
| 1778022003 | 17.78° C | 46% | 1013.9 hPa | 0 mm | 2.24 m/s, 162° | - | - |
| 1778021703 | 17.78° C | 45% | 1013.9 hPa | 0 mm | 2.24 m/s, 162° | - | - |
* Rain latest hour (hover to see other rain measurements)
** Current wind speed in m/s (hover to see current wind gust speed)